Location: Berg
(48.4333°N, 13.9167°E)
Time: 04:41:51
(UTC+00:00)

SWAS - Pass Details

Date: 18 September 2020
Orbit: 581 x 590 km, 69.9° (Epoch: 29 October)

Event Time Altitude Azimuth Distance (km) Brightness Sun altitude
Rises 19:32:20 0° 329° (NNW) 2,829 9.0 -23.2°
Reaches altitude 10° 19:34:35 10° 327° (NNW) 1,922 8.0 -23.5°
Maximum altitude 19:38:53 74° 243° (WSW) 614 4.5 -24.1°
Enters shadow 19:38:54 74° 241° (WSW) 614 4.5 -24.1°
